COSMOS 1779 (GLONASS)

Satellite information

Favourite Embed

Satellite Type and Status

PAYLOADIN ORBIT

Key statistics

Satellite COSMOS 1779 (GLONASS) at a glance.

Uptime

14334

Days in orbit

Revolutions

≈ 2.1

Per day

Orbit

MEO

Medium Earth Orbit

Inclination

64.8

Latest

Satellite identification and parameters

Extended collection of information and parameters for COSMOS 1779 (GLONASS).

Object identification

Identified? True

Debris? False

Object name: COSMOS 1779 (GLONASS)

International designator: 1986-071B

Object number (NORAD): 16962

Object ID (CCSDS): 16962

Country: COMMONWEALTH OF INDEPENDENT STATES (CIS)

Current information (Y/N): Y

RCS size: LARGE

Orbital parameters

Period: 675.73 minutes

Inclination: 64.7894 deg

SMA: 25507.962 km

Apoapsis: 19162.4 km

Periapsis: 19097.254 km

RAAN: 78.7729 deg

Eccentricy: 0.00127698

Argument of periapsis: 42.0889 deg

Mean anomaly: 47.9666 deg

Mean motion: 2.13102783 rev/day

Mean motion (dot): -0.00000051 rev/day2

B* drag term: 0.0 1/REarth

Two-line elements (TLE)

Creation date: Dec. 14, 2025, 3:07 a.m.

Reference frame: TEME

Reference center: EARTH

Epoch: Dec. 13, 2025, 2:18 p.m. UTC

TLE line 0: 0 COSMOS 1779 (GLONASS)

TLE line 1: 1 16962U 86071B 25347.59611800 -.00000051 00000-0 00000-0 0 9994

TLE line 2: 2 16962 64.7894 78.7729 0012770 42.0889 47.9666 2.13102783305296

Live tracking on map

Real-time ground track for satellite COSMOS 1779 (GLONASS).

In-orbit conjunctions

A list of the most updated potential collisions computed for object COSMOS 1779 (GLONASS).

Target Orbit TCA Probability of collision Miss distance Type
SL-12 R/B(2) MEO 2025-11-07 11:05:25 TBA 3009.0 (m) ROCKET BODY

Associated space launch

GLONASS navigation satellites

COSMOS 1779 (GLONASS) was lifted into orbit during the mission ‘Proton | Uragan 14 to 16’, on board a Proton space rocket.

The launch took place on Sept. 16, 1986, 11:38 a.m. from 200/40.

For more information about the launch, click the button.

Launch to space Proton | Uragan 14 to 16
Proton | Uragan 14 to 16

Agency: N/A

Status: Launch Successful

Launch date: Sept. 16, 1986, 11:38 a.m. UTC

Rocket: Proton

Launch pad: 200/40

Location: Baikonur Cosmodrome, Republic of Kazakhstan

...

Latest news about this satellite

There are no fresh news available about this satellite. Check back as we update our databases every day.


Newsletter sign-up

Weekly statistics, charts and insights to help you stay on top of the space industry.